Location: Prairie State College
(41.5244°N, 87.6382°W)
Time: 14:35:26
(UTC-06:00)

MSX - Visible Passes

Search period start: 27 February 2017 00:00
Search period end: 09 March 2017 00:00
Orbit: 894 x 907 km, 98.7° (Epoch: 14 February)

Date Brightness Start Highest point End Pass type
(mag) Time Alt. Az. Time Alt. Az. Time Alt. Az.
27 Feb 5.3 05:49:08 10° NNE 05:54:39 44° E 06:00:07 10° S visible
27 Feb 7.2 19:08:10 10° WSW 19:10:37 13° W 19:13:05 10° WNW visible
28 Feb 5.2 05:51:52 10° NNE 05:57:26 46° E 06:02:57 10° S visible
28 Feb 7.2 19:11:22 10° WSW 19:13:26 12° W 19:15:30 10° WNW visible
01 Mar 5.0 05:54:36 10° NNE 06:00:13 49° E 06:05:47 10° S visible
01 Mar 7.3 19:14:42 10° WSW 19:16:15 11° W 19:17:48 10° WNW visible
02 Mar 4.9 05:57:21 10° NNE 06:03:00 52° E 06:08:37 10° S visible
02 Mar 7.4 19:18:21 10° W 19:19:04 10° W 19:19:47 10° W visible
